Time,TemperatureF,DewpointF,PressureIn,WindDirection,WindDirectionDegrees,WindSpeedMPH,WindSpeedGustMPH,Humidity,HourlyPrecipIn,Conditions,Clouds,dailyrainin,SoftwareType,DateUTC
2013-01-25 00:02:00,11.0,1.0,-100.00,SSW,205,12.0,19.0,65,0.00,,,0.00,,2013-01-25 06:02:00,
2013-01-25 00:11:00,11.0,1.0,-100.00,SW,215,16.0,24.0,65,0.00,,,0.00,,2013-01-25 06:11:00,
2013-01-25 00:21:00,11.0,1.0,-100.00,SSW,210,11.0,21.0,65,0.00,,,0.00,,2013-01-25 06:21:00,
2013-01-25 00:32:00,11.0,1.0,-100.00,SW,220,12.0,19.0,66,0.00,,,0.00,,2013-01-25 06:32:00,
2013-01-25 00:41:00,10.0,1.0,-100.00,SSW,210,15.0,21.0,67,0.00,,,0.00,,2013-01-25 06:41:00,
2013-01-25 00:51:00,10.0,1.0,-100.00,SW,220,13.0,23.0,67,0.00,,,0.00,,2013-01-25 06:51:00,
2013-01-25 01:02:00,10.0,1.0,-100.00,SW,215,14.0,19.0,68,0.00,,,0.00,,2013-01-25 07:02:00,
2013-01-25 01:11:00,11.0,1.0,-100.00,SW,220,12.0,19.0,68,0.00,,,0.00,,2013-01-25 07:11:00,
2013-01-25 01:21:00,11.0,3.0,-100.00,SW,225,12.0,19.0,69,0.00,,,0.00,,2013-01-25 07:21:00,
2013-01-25 01:32:00,11.0,3.0,-100.00,SSW,205,14.0,19.0,70,0.00,,,0.00,,2013-01-25 07:32:00,
2013-01-25 01:42:00,11.0,3.0,-100.00,SW,225,11.0,21.0,70,0.00,,,0.00,,2013-01-25 07:42:00,
2013-01-25 01:51:00,11.0,3.0,-100.00,SSW,210,15.0,22.0,70,0.00,,,0.00,,2013-01-25 07:51:00,
2013-01-25 02:01:00,11.0,3.0,-100.00,SW,225,14.0,21.0,70,0.00,,,0.00,,2013-01-25 08:01:00,
2013-01-25 02:11:00,11.0,3.0,-100.00,SW,215,11.0,17.0,70,0.00,,,0.00,,2013-01-25 08:11:00,
2013-01-25 02:21:00,11.0,3.0,-100.00,SW,215,12.0,22.0,71,0.00,,,0.00,,2013-01-25 08:21:00,
2013-01-25 02:32:00,11.0,3.0,-100.00,SW,230,10.0,16.0,71,0.00,,,0.00,,2013-01-25 08:32:00,
2013-01-25 02:41:00,11.0,3.0,-100.00,SW,230,13.0,17.0,71,0.00,,,0.00,,2013-01-25 08:41:00,
2013-01-25 02:52:00,12.0,5.0,-100.00,SW,230,13.0,17.0,71,0.00,,,0.00,,2013-01-25 08:52:00,
2013-01-25 03:01:00,12.0,5.0,-100.00,SW,225,14.0,21.0,71,0.00,,,0.00,,2013-01-25 09:01:00,
2013-01-25 03:11:00,12.0,5.0,-100.00,SW,225,14.0,21.0,71,0.00,,,0.00,,2013-01-25 09:11:00,
2013-01-25 03:21:00,12.0,5.0,-100.00,SW,235,12.0,21.0,71,0.00,,,0.00,,2013-01-25 09:21:00,
2013-01-25 03:31:00,12.0,5.0,-100.00,SW,235,13.0,18.0,71,0.00,,,0.00,,2013-01-25 09:31:00,
2013-01-25 03:41:00,12.0,5.0,-100.00,WSW,250,14.0,19.0,71,0.00,,,0.00,,2013-01-25 09:41:00,
2013-01-25 03:51:00,12.0,5.0,-100.00,WSW,245,13.0,19.0,71,0.00,,,0.00,,2013-01-25 09:51:00,
2013-01-25 04:02:00,12.0,5.0,-100.00,WSW,250,16.0,19.0,71,0.00,,,0.00,,2013-01-25 10:02:00,
2013-01-25 04:12:00,12.0,5.0,-100.00,West,265,11.0,20.0,72,0.00,,,0.00,,2013-01-25 10:12:00,
2013-01-25 04:21:00,12.0,5.0,-100.00,WSW,250,12.0,20.0,72,0.00,,,0.00,,2013-01-25 10:21:00,
2013-01-25 04:31:00,12.0,5.0,-100.00,WSW,245,14.0,20.0,73,0.00,,,0.00,,2013-01-25 10:31:00,
2013-01-25 04:42:00,12.0,5.0,-100.00,West,260,14.0,18.0,73,0.00,,,0.00,,2013-01-25 10:42:00,
2013-01-25 04:51:00,13.0,7.0,-100.00,WSW,250,13.0,17.0,74,0.00,,,0.00,,2013-01-25 10:51:00,
2013-01-25 05:02:00,13.0,7.0,-100.00,West,265,15.0,24.0,74,0.00,,,0.00,,2013-01-25 11:02:00,
2013-01-25 05:11:00,14.0,7.0,-100.00,West,270,13.0,22.0,74,0.00,,,0.00,,2013-01-25 11:11:00,
2013-01-25 05:22:00,15.0,9.0,-100.00,WNW,285,16.0,20.0,74,0.00,,,0.00,,2013-01-25 11:22:00,
2013-01-25 05:32:00,15.0,9.0,-100.00,WNW,295,16.0,21.0,74,0.00,,,0.00,,2013-01-25 11:32:00,
2013-01-25 05:42:00,15.0,9.0,-100.00,WNW,290,17.0,21.0,75,0.00,,,0.00,,2013-01-25 11:42:00,
2013-01-25 05:52:00,15.0,9.0,-100.00,WNW,300,17.0,26.0,75,0.00,,,0.00,,2013-01-25 11:52:00,
2013-01-25 06:02:00,15.0,9.0,-100.00,WNW,300,16.0,29.0,75,0.00,,,0.00,,2013-01-25 12:02:00,
2013-01-25 06:11:00,15.0,9.0,-100.00,NW,310,18.0,27.0,75,0.00,,,0.00,,2013-01-25 12:11:00,
2013-01-25 06:22:00,15.0,9.0,-100.00,NW,305,16.0,30.0,75,0.00,,,0.00,,2013-01-25 12:22:00,
2013-01-25 06:32:00,14.0,9.0,-100.00,NW,315,22.0,29.0,75,0.00,,,0.00,,2013-01-25 12:32:00,
2013-01-25 06:42:00,13.0,7.0,-100.00,NW,320,24.0,35.0,76,0.00,,,0.00,,2013-01-25 12:42:00,
2013-01-25 06:52:00,12.0,5.0,-100.00,NW,320,22.0,37.0,73,0.00,,,0.00,,2013-01-25 12:52:00,
2013-01-25 07:02:00,11.0,3.0,-100.00,NW,310,24.0,32.0,73,0.00,,,0.00,,2013-01-25 13:02:00,
2013-01-25 07:11:00,10.0,3.0,-100.00,NW,320,23.0,34.0,72,0.00,,,0.00,,2013-01-25 13:11:00,
2013-01-25 07:22:00,9.0,1.0,-100.00,NW,320,21.0,33.0,71,0.00,,,0.00,,2013-01-25 13:22:00,
2013-01-25 07:32:00,8.0,1.0,-100.00,NNW,330,22.0,32.0,72,0.00,,,0.00,,2013-01-25 13:32:00,
2013-01-25 07:42:00,7.0,0.0,-100.00,NW,315,27.0,36.0,71,0.00,,,0.00,,2013-01-25 13:42:00,
2013-01-25 07:52:00,7.0,0.0,-100.00,NW,320,25.0,35.0,70,0.00,,,0.00,,2013-01-25 13:52:00,
2013-01-25 08:02:00,6.0,0.0,-100.00,NW,310,23.0,31.0,71,0.00,,,0.01,,2013-01-25 14:02:00,
2013-01-25 08:12:00,6.0,0.0,-100.00,NW,315,20.0,31.0,73,0.00,,,0.01,,2013-01-25 14:12:00,
2013-01-25 08:22:00,6.0,0.0,-100.00,NNW,330,19.0,25.0,75,0.00,,,0.01,,2013-01-25 14:22:00,
2013-01-25 08:32:00,5.0,0.0,-100.00,NNW,330,20.0,30.0,75,0.00,,,0.01,,2013-01-25 14:32:00,
2013-01-25 08:42:00,4.0,-2.0,-100.00,NW,320,21.0,27.0,76,0.00,,,0.01,,2013-01-25 14:42:00,
2013-01-25 08:52:00,4.0,-2.0,-100.00,NNW,330,21.0,32.0,75,0.00,,,0.01,,2013-01-25 14:52:00,
2013-01-25 09:02:00,4.0,-2.0,-100.00,NW,325,16.0,34.0,74,0.00,,,0.01,,2013-01-25 15:02:00,
2013-01-25 09:12:00,4.0,-2.0,-100.00,NNW,335,22.0,29.0,74,0.00,,,0.01,,2013-01-25 15:12:00,
2013-01-25 09:22:00,4.0,-2.0,-100.00,NNW,330,21.0,27.0,73,0.00,,,0.01,,2013-01-25 15:22:00,
2013-01-25 09:32:00,3.0,-4.0,-100.00,NW,325,20.0,29.0,73,0.00,,,0.01,,2013-01-25 15:32:00,
2013-01-25 09:42:00,3.0,-4.0,-100.00,NNW,330,22.0,29.0,73,0.00,,,0.01,,2013-01-25 15:42:00,
2013-01-25 09:52:00,3.0,-4.0,-100.00,NNW,335,19.0,27.0,73,0.00,,,0.01,,2013-01-25 15:52:00,
2013-01-25 10:03:00,3.0,-4.0,-100.00,NW,325,19.0,26.0,74,0.00,,,0.01,,2013-01-25 16:03:00,
2013-01-25 10:12:00,3.0,-4.0,-100.00,NW,325,22.0,30.0,72,0.00,,,0.01,,2013-01-25 16:12:00,
2013-01-25 10:22:00,3.0,-4.0,-100.00,NNW,330,16.0,27.0,72,0.00,,,0.01,,2013-01-25 16:22:00,
2013-01-25 10:32:00,3.0,-4.0,-100.00,NW,325,21.0,26.0,72,0.00,,,0.01,,2013-01-25 16:32:00,
2013-01-25 10:42:00,2.0,-6.0,-100.00,NNW,340,25.0,34.0,69,0.00,,,0.01,,2013-01-25 16:42:00,
2013-01-25 10:52:00,3.0,-6.0,-100.00,NNW,335,19.0,30.0,68,0.00,,,0.01,,2013-01-25 16:52:00,
2013-01-25 11:02:00,2.0,-4.0,-100.00,NNW,330,19.0,26.0,72,0.00,,,0.01,,2013-01-25 17:02:00,
2013-01-25 11:12:00,2.0,-4.0,-100.00,NW,320,22.0,28.0,72,0.00,,,0.01,,2013-01-25 17:12:00,
2013-01-25 11:22:00,2.0,-6.0,-100.00,NNW,330,18.0,27.0,70,0.00,,,0.01,,2013-01-25 17:22:00,
2013-01-25 11:32:00,3.0,-4.0,-100.00,NW,325,16.0,24.0,70,0.00,,,0.01,,2013-01-25 17:32:00,
2013-01-25 11:42:00,2.0,-6.0,-100.00,NNW,330,22.0,28.0,70,0.00,,,0.01,,2013-01-25 17:42:00,
2013-01-25 11:52:00,3.0,-4.0,-100.00,NNW,330,21.0,26.0,70,0.00,,,0.01,,2013-01-25 17:52:00,
2013-01-25 12:03:00,3.0,-4.0,-100.00,NNW,330,18.0,26.0,69,0.00,,,0.01,,2013-01-25 18:03:00,
2013-01-25 12:11:00,3.0,-4.0,-100.00,NW,325,21.0,27.0,69,0.00,,,0.01,,2013-01-25 18:11:00,
2013-01-25 12:23:00,3.0,-4.0,-100.00,NW,320,16.0,26.0,69,0.00,,,0.01,,2013-01-25 18:23:00,
2013-01-25 12:32:00,3.0,-6.0,-100.00,NW,325,19.0,26.0,69,0.00,,,0.01,,2013-01-25 18:32:00,
2013-01-25 12:42:00,3.0,-6.0,-100.00,NNW,330,17.0,24.0,69,0.00,,,0.01,,2013-01-25 18:42:00,
2013-01-25 12:52:00,3.0,-6.0,-100.00,NNW,335,22.0,26.0,68,0.00,,,0.01,,2013-01-25 18:52:00,
2013-01-25 13:02:00,3.0,-6.0,-100.00,NW,325,21.0,26.0,68,0.00,,,0.01,,2013-01-25 19:02:00,
2013-01-25 13:12:00,3.0,-6.0,-100.00,NW,325,21.0,26.0,68,0.00,,,0.01,,2013-01-25 19:12:00,
2013-01-25 13:22:00,3.0,-6.0,-100.00,NNW,335,17.0,24.0,68,0.00,,,0.01,,2013-01-25 19:22:00,
2013-01-25 13:32:00,3.0,-6.0,-100.00,NNW,335,21.0,26.0,67,0.00,,,0.01,,2013-01-25 19:32:00,
2013-01-25 13:42:00,3.0,-6.0,-100.00,NNW,330,19.0,24.0,68,0.00,,,0.01,,2013-01-25 19:42:00,
2013-01-25 13:52:00,4.0,-4.0,-100.00,NNW,330,15.0,22.0,68,0.00,,,0.01,,2013-01-25 19:52:00,
2013-01-25 14:02:00,3.0,-4.0,-100.00,NNW,330,17.0,23.0,68,0.00,,,0.01,,2013-01-25 20:02:00,
2013-01-25 14:12:00,3.0,-6.0,-100.00,NNW,330,16.0,22.0,67,0.00,,,0.01,,2013-01-25 20:12:00,
2013-01-25 14:22:00,4.0,-4.0,-100.00,NNW,330,14.0,19.0,68,0.00,,,0.01,,2013-01-25 20:22:00,
2013-01-25 14:32:00,4.0,-4.0,-100.00,NW,325,14.0,23.0,68,0.00,,,0.01,,2013-01-25 20:32:00,
2013-01-25 14:42:00,4.0,-4.0,-100.00,NW,320,16.0,22.0,67,0.00,,,0.01,,2013-01-25 20:42:00,
2013-01-25 14:52:00,4.0,-4.0,-100.00,NW,310,16.0,22.0,67,0.00,,,0.01,,2013-01-25 20:52:00,
2013-01-25 15:02:00,3.0,-6.0,-100.00,NNW,330,18.0,23.0,67,0.00,,,0.01,,2013-01-25 21:02:00,
2013-01-25 15:11:00,4.0,-4.0,-100.00,NW,310,14.0,23.0,68,0.00,,,0.01,,2013-01-25 21:11:00,
2013-01-25 15:22:00,3.0,-6.0,-100.00,NW,320,18.0,22.0,67,0.00,,,0.01,,2013-01-25 21:22:00,
2013-01-25 15:32:00,3.0,-6.0,-100.00,NNW,330,19.0,23.0,67,0.00,,,0.01,,2013-01-25 21:32:00,
2013-01-25 15:42:00,4.0,-4.0,-100.00,NW,320,15.0,22.0,67,0.00,,,0.01,,2013-01-25 21:42:00,
2013-01-25 15:52:00,4.0,-4.0,-100.00,NNW,335,12.0,18.0,67,0.00,,,0.01,,2013-01-25 21:52:00,
2013-01-25 16:02:00,3.0,-6.0,-100.00,NNW,330,14.0,21.0,67,0.00,,,0.01,,2013-01-25 22:02:00,
2013-01-25 16:11:00,3.0,-6.0,-100.00,NNW,330,14.0,21.0,67,0.00,,,0.01,,2013-01-25 22:11:00,
2013-01-25 16:22:00,3.0,-6.0,-100.00,North,350,15.0,21.0,67,0.00,,,0.01,,2013-01-25 22:22:00,
2013-01-25 16:32:00,3.0,-6.0,-100.00,North,350,14.0,21.0,67,0.00,,,0.01,,2013-01-25 22:32:00,
2013-01-25 16:42:00,3.0,-6.0,-100.00,NNW,340,12.0,19.0,68,0.00,,,0.01,,2013-01-25 22:42:00,
2013-01-25 16:51:00,3.0,-6.0,-100.00,North,0,13.0,17.0,68,0.00,,,0.01,,2013-01-25 22:51:00,
2013-01-25 17:02:00,2.0,-6.0,-100.00,North,355,11.0,18.0,68,0.00,,,0.01,,2013-01-25 23:02:00,
2013-01-25 17:11:00,2.0,-6.0,-100.00,North,0,12.0,16.0,68,0.00,,,0.01,,2013-01-25 23:11:00,
2013-01-25 17:22:00,2.0,-6.0,-100.00,NNW,345,9.0,15.0,68,0.00,,,0.01,,2013-01-25 23:22:00,
2013-01-25 17:32:00,2.0,-6.0,-100.00,NNW,340,12.0,14.0,68,0.00,,,0.01,,2013-01-25 23:32:00,
2013-01-25 17:42:00,2.0,-6.0,-100.00,NNW,345,9.0,13.0,68,0.00,,,0.01,,2013-01-25 23:42:00,
2013-01-25 17:52:00,2.0,-6.0,-100.00,NNW,340,9.0,12.0,69,0.00,,,0.01,,2013-01-25 23:52:00,
2013-01-25 18:02:00,2.0,-6.0,-100.00,North,0,12.0,15.0,69,0.00,,,0.01,,2013-01-26 00:02:00,
2013-01-25 18:11:00,1.0,-6.0,-100.00,North,0,11.0,17.0,68,0.00,,,0.01,,2013-01-26 00:11:00,
2013-01-25 18:22:00,1.0,-6.0,-100.00,NNW,340,7.0,14.0,68,0.00,,,0.01,,2013-01-26 00:22:00,
2013-01-25 18:32:00,1.0,-8.0,-100.00,North,355,9.0,12.0,69,0.00,,,0.01,,2013-01-26 00:32:00,
2013-01-25 18:42:00,1.0,-8.0,-100.00,NNW,340,11.0,14.0,69,0.00,,,0.01,,2013-01-26 00:42:00,
2013-01-25 18:52:00,1.0,-8.0,-100.00,North,0,12.0,16.0,69,0.00,,,0.01,,2013-01-26 00:52:00,
2013-01-25 19:01:00,0.0,-8.0,-100.00,NNW,345,9.0,15.0,69,0.00,,,0.01,,2013-01-26 01:01:00,
2013-01-25 19:11:00,0.0,-8.0,-100.00,NNW,340,12.0,17.0,69,0.00,,,0.01,,2013-01-26 01:11:00,
2013-01-25 19:22:00,0.0,-8.0,-100.00,North,0,9.0,15.0,69,0.00,,,0.01,,2013-01-26 01:22:00,
2013-01-25 19:32:00,0.0,-8.0,-100.00,NW,325,6.0,11.0,70,0.00,,,0.01,,2013-01-26 01:32:00,
2013-01-25 19:42:00,0.0,-8.0,-100.00,NNW,340,8.0,12.0,70,0.00,,,0.01,,2013-01-26 01:42:00,
2013-01-25 19:52:00,0.0,-8.0,-100.00,North,350,7.0,13.0,70,0.00,,,0.01,,2013-01-26 01:52:00,
2013-01-25 20:01:00,-1.0,-8.0,-100.00,North,350,7.0,11.0,71,0.00,,,0.01,,2013-01-26 02:01:00,
2013-01-25 20:11:00,-1.0,-8.0,-100.00,NNW,340,7.0,12.0,71,0.00,,,0.01,,2013-01-26 02:11:00,
2013-01-25 20:22:00,-1.0,-8.0,-100.00,NNW,335,10.0,13.0,71,0.00,,,0.01,,2013-01-26 02:22:00,
2013-01-25 20:32:00,-1.0,-8.0,-100.00,NNW,330,9.0,12.0,71,0.00,,,0.01,,2013-01-26 02:32:00,
2013-01-25 20:42:00,-1.0,-8.0,-100.00,NW,320,7.0,11.0,71,0.00,,,0.01,,2013-01-26 02:42:00,
2013-01-25 20:52:00,-1.0,-8.0,-100.00,NNW,340,6.0,10.0,71,0.00,,,0.01,,2013-01-26 02:52:00,
2013-01-25 21:02:00,-2.0,-9.0,-100.00,West,280,4.0,7.0,72,0.00,,,0.01,,2013-01-26 03:02:00,
2013-01-25 21:11:00,-2.0,-9.0,-100.00,WNW,285,2.0,6.0,73,0.00,,,0.01,,2013-01-26 03:11:00,
2013-01-25 21:21:00,-2.0,-9.0,-100.00,NW,325,4.0,6.0,74,0.00,,,0.01,,2013-01-26 03:21:00,
2013-01-25 21:31:00,-2.0,-9.0,-100.00,NW,325,5.0,6.0,74,0.00,,,0.01,,2013-01-26 03:31:00,
2013-01-25 21:42:00,-2.0,-9.0,-100.00,NW,315,4.0,6.0,74,0.00,,,0.01,,2013-01-26 03:42:00,
2013-01-25 21:51:00,-3.0,-9.0,-100.00,NW,310,4.0,6.0,74,0.00,,,0.01,,2013-01-26 03:51:00,
2013-01-25 22:02:00,-3.0,-9.0,-100.00,NW,315,6.0,7.0,74,0.00,,,0.01,,2013-01-26 04:02:00,
2013-01-25 22:12:00,-3.0,-9.0,-100.00,NNW,330,6.0,7.0,75,0.00,,,0.01,,2013-01-26 04:12:00,
2013-01-25 22:21:00,-3.0,-9.0,-100.00,NNW,335,6.0,8.0,75,0.00,,,0.01,,2013-01-26 04:21:00,
2013-01-25 22:32:00,-3.0,-9.0,-100.00,NNW,340,5.0,7.0,75,0.00,,,0.01,,2013-01-26 04:32:00,
2013-01-25 22:42:00,-4.0,-9.0,-100.00,NNW,345,3.0,6.0,75,0.00,,,0.01,,2013-01-26 04:42:00,
2013-01-25 22:52:00,-4.0,-9.0,-100.00,North,0,4.0,6.0,75,0.00,,,0.01,,2013-01-26 04:52:00,
2013-01-25 23:03:00,-4.0,-9.0,-100.00,NNE,15,3.0,6.0,76,0.00,,,0.01,,2013-01-26 05:03:00,
2013-01-25 23:12:00,-5.0,-11.0,-100.00,NNE,15,3.0,4.0,76,0.00,,,0.01,,2013-01-26 05:12:00,
2013-01-25 23:23:00,-5.0,-9.0,-100.00,NNE,15,4.0,6.0,76,0.00,,,0.01,,2013-01-26 05:23:00,
2013-01-25 23:33:00,-4.0,-9.0,-100.00,NNW,340,3.0,4.0,76,0.00,,,0.01,,2013-01-26 05:33:00,
2013-01-25 23:41:00,-4.0,-9.0,-100.00,NNW,330,6.0,6.0,76,0.00,,,0.01,,2013-01-26 05:41:00,
2013-01-25 23:52:00,-4.0,-9.0,-100.00,NNW,340,5.0,7.0,76,0.00,,,0.01,,2013-01-26 05:52:00,